Date String (YYYY-MM-DD hh:mm:ss) UTC,Instrument flags,absolute air pressure of the measurement (hPa),sample flow rate (lpm),inlet stack bypass flow (lpm),air temperature of the measurement (°C),ambient temperature measured by the external sensor (°C),aerosol sample conditioner tube jacket temperature (°C),OPC LED temperature (°C),internal box temperature (°C),relative humidity of the measurement (%),span deviation,mass concentration of particles derived from Lorenz-Mie calculation of OPC scattering (μg/m³),mass concentration of particles derived from Lorenz-Mie calculation of OPC scattering (μg/m³),mass concentration of particles derived from Lorenz-Mie calculation of OPC scattering (μg/m³)
DateTimeUTC,F1_M11,P_M11,Q1_M11,Q2_M11,T1_M11,T2_M11,T3_M11,T4_M11,T5_M11,U1_M11,ZSPAN_M11,X0_M11,X2_M11,X1_M11
2024-06-11 00:00:00,SystemResetWarning,0825.9,5.00,000.00,029.4,027.2,000.0,038.2,030.6,025.3,0000.0,0011.71,0004.24,0003.55
2024-06-11 00:01:00,SystemResetWarning,0825.9,5.00,000.00,029.5,027.6,000.0,038.1,030.8,024.8,0000.0,0011.22,0004.21,0003.54
2024-06-11 00:02:00,SystemResetWarning,0826.0,5.01,000.00,029.5,027.9,000.0,038.1,031.0,025.5,0000.0,0011.02,0004.23,0003.55
2024-06-11 00:03:00,SystemResetWarning,0826.0,5.00,000.00,029.5,028.2,000.0,038.1,031.1,026.0,0000.0,0010.95,0004.26,0003.55
2024-06-11 00:04:00,SystemResetWarning,0826.0,4.99,000.00,029.6,028.4,000.0,038.1,031.3,025.6,0000.0,0010.08,0004.27,0003.55
2024-06-11 00:05:00,SystemResetWarning,0826.0,5.00,000.00,029.6,028.6,000.0,038.1,031.3,025.7,0000.0,0009.95,0004.27,0003.55
2024-06-11 00:06:00,SystemResetWarning,0826.0,5.00,000.00,029.7,028.8,000.0,038.1,031.4,026.1,0000.0,0009.83,0004.25,0003.54
2024-06-11 00:07:00,SystemResetWarning,0826.0,5.01,000.00,029.7,029.0,000.0,038.1,031.5,026.7,0000.0,0009.81,0004.24,0003.54
2024-06-11 00:08:00,SystemResetWarning,0826.0,5.00,000.00,029.8,029.1,000.0,038.1,031.5,026.3,0000.0,0009.63,0004.25,0003.55
2024-06-11 00:09:00,SystemResetWarning,0826.1,5.00,000.00,029.8,029.2,000.0,038.1,031.6,026.4,0000.0,0008.95,0004.28,0003.55
2024-06-11 00:10:00,SystemResetWarning,0826.1,5.00,000.00,029.9,029.3,000.0,038.1,031.7,026.3,0000.0,0009.21,0004.38,0003.57
2024-06-11 00:11:00,SystemResetWarning,0826.1,5.00,000.00,029.9,029.4,000.0,038.1,031.7,026.5,0000.0,0009.30,0004.42,0003.58
2024-06-11 00:12:00,SystemResetWarning,0826.1,5.00,000.00,030.0,029.5,000.0,038.2,031.7,026.4,0000.0,0009.04,0004.46,0003.60
2024-06-11 00:13:00,SystemResetWarning,0826.2,5.00,000.00,030.0,029.5,000.0,038.2,031.8,026.2,0000.0,0009.02,0004.46,0003.61
2024-06-11 00:14:00,SystemResetWarning,0826.2,5.00,000.00,030.1,029.6,000.0,038.2,031.9,026.4,0000.0,0009.27,0004.45,0003.61
2024-06-11 00:15:00,SystemResetWarning,0826.2,4.99,000.00,030.1,029.4,000.0,038.3,031.8,026.0,0000.0,0009.37,0004.46,0003.62
2024-06-11 00:16:00,SystemResetWarning,0826.0,5.00,000.00,029.9,027.5,000.0,038.3,030.9,025.5,0000.0,0009.52,0004.47,0003.64
2024-06-11 00:17:00,SystemResetWarning,0826.0,5.02,000.00,029.6,026.7,000.0,038.3,030.5,027.1,0000.0,0009.51,0004.48,0003.65
2024-06-11 00:18:00,SystemResetWarning,0826.0,4.99,000.00,029.4,026.9,000.0,038.3,030.5,027.7,0000.0,0009.34,0004.50,0003.66
2024-06-11 00:19:00,SystemResetWarning,0826.0,5.00,000.00,029.4,027.3,000.0,038.1,030.7,026.6,0000.0,0009.37,0004.51,0003.67
2024-06-11 00:20:00,SystemResetWarning,0826.0,5.00,000.00,029.5,027.7,000.0,038.1,030.9,026.3,0000.0,0009.11,0004.49,0003.68
2024-06-11 00:21:00,SystemResetWarning,0826.1,5.00,000.00,029.5,028.0,000.0,038.0,031.1,025.9,0000.0,0008.75,0004.42,0003.68
2024-06-11 00:22:00,SystemResetWarning,0826.0,5.00,000.00,029.5,028.3,000.0,038.0,031.2,027.2,0000.0,0008.69,0004.39,0003.66
2024-06-11 00:23:00,SystemResetWarning,0826.1,5.00,000.00,029.6,028.5,000.0,038.0,031.3,027.5,0000.0,0008.85,0004.35,0003.65
2024-06-11 00:24:00,SystemResetWarning,0826.1,5.01,000.00,029.6,028.7,000.0,038.0,031.4,026.6,0000.0,0009.02,0004.31,0003.65
2024-06-11 00:25:00,SystemResetWarning,0826.2,5.00,000.00,029.7,028.9,000.0,038.0,031.4,026.4,0000.0,0008.71,0004.30,0003.65
2024-06-11 00:26:00,SystemResetWarning,0826.2,5.00,000.00,029.7,029.0,000.0,038.1,031.5,026.1,0000.0,0008.64,0004.28,0003.65
2024-06-11 00:27:00,SystemResetWarning,0826.2,5.01,000.00,029.8,029.2,000.0,038.1,031.6,026.9,0000.0,0008.56,0004.29,0003.65
2024-06-11 00:28:00,SystemResetWarning,0826.2,5.00,000.00,029.8,029.3,000.0,038.1,031.7,026.8,0000.0,0008.57,0004.33,0003.64
2024-06-11 00:29:00,SystemResetWarning,0826.2,5.00,000.00,029.9,029.4,000.0,038.1,031.7,026.7,0000.0,0008.60,0004.36,0003.64
2024-06-11 00:30:00,SystemResetWarning,0826.2,4.99,000.00,030.0,029.5,000.0,038.2,031.8,026.2,0000.0,0008.61,0004.36,0003.63
2024-06-11 00:31:00,SystemResetWarning,0826.2,5.00,000.00,030.0,029.5,000.0,038.2,031.8,026.0,0000.0,0008.61,0004.35,0003.63
2024-06-11 00:32:00,SystemResetWarning,0826.2,5.00,000.00,030.0,028.6,000.0,038.2,031.4,026.6,0000.0,0009.97,0004.40,0003.64
2024-06-11 00:33:00,SystemResetWarning,0826.1,5.01,000.00,029.6,026.9,000.0,038.3,030.5,026.9,0000.0,0010.92,0004.42,0003.66
2024-06-11 00:34:00,SystemResetWarning,0826.0,5.02,000.00,029.4,026.8,000.0,038.2,030.4,027.1,0000.0,0010.61,0004.42,0003.67
2024-06-11 00:35:00,SystemResetWarning,0826.0,5.00,000.00,029.4,027.1,000.0,038.1,030.5,027.6,0000.0,0010.31,0004.43,0003.67
2024-06-11 00:36:00,SystemResetWarning,0826.1,4.99,000.00,029.4,027.5,000.0,038.0,030.8,028.4,0000.0,0010.26,0004.42,0003.68
2024-06-11 00:37:00,SystemResetWarning,0826.1,5.00,000.00,029.4,027.8,000.0,038.0,030.9,026.9,0000.0,0010.27,0004.40,0003.69
2024-06-11 00:38:00,SystemResetWarning,0826.1,5.01,000.00,029.5,028.1,000.0,038.0,031.1,025.5,0000.0,0010.36,0004.38,0003.68
2024-06-11 00:39:00,SystemResetWarning,0826.1,5.00,000.00,029.5,028.4,000.0,037.9,031.2,025.9,0000.0,0010.34,0004.34,0003.69
2024-06-11 00:40:00,SystemResetWarning,0826.1,5.00,000.00,029.6,028.6,000.0,038.0,031.3,025.9,0000.0,0011.30,0004.32,0003.69
2024-06-11 00:41:00,SystemResetWarning,0826.1,5.00,000.00,029.6,028.8,000.0,038.0,031.4,025.8,0000.0,0011.71,0004.36,0003.71
2024-06-11 00:42:00,SystemResetWarning,0826.1,5.00,000.00,029.7,029.0,000.0,038.0,031.5,025.8,0000.0,0011.99,0004.37,0003.70
2024-06-11 00:43:00,SystemResetWarning,0826.2,5.00,000.00,029.8,029.1,000.0,038.0,031.5,025.3,0000.0,0011.20,0004.33,0003.70
2024-06-11 00:44:00,SystemResetWarning,0826.2,5.00,000.00,029.8,029.2,000.0,038.0,031.6,025.1,0000.0,0010.38,0004.31,0003.70
2024-06-11 00:45:00,SystemResetWarning,0826.2,5.00,000.00,029.9,029.3,000.0,038.1,031.7,025.1,0000.0,0010.72,0004.34,0003.70
2024-06-11 00:46:00,SystemResetWarning,0826.2,4.99,000.00,029.9,029.4,000.0,038.1,031.8,025.3,0000.0,0010.81,0004.37,0003.70
2024-06-11 00:47:00,SystemResetWarning,0826.2,5.00,000.00,030.0,029.5,000.0,038.1,031.8,025.3,0000.0,0010.96,0004.39,0003.68
2024-06-11 00:48:00,SystemResetWarning,0826.1,4.98,000.00,030.0,028.7,000.0,038.2,031.4,025.5,0000.0,0010.91,0004.40,0003.68
2024-06-11 00:49:00,SystemResetWarning,0826.0,5.02,000.00,029.6,026.9,000.0,038.2,030.5,025.9,0000.0,0010.59,0004.40,0003.69
2024-06-11 00:50:00,SystemResetWarning,0826.0,5.00,000.00,029.4,026.8,000.0,038.2,030.4,026.2,0000.0,0010.61,0004.43,0003.70
2024-06-11 00:51:00,SystemResetWarning,0826.0,5.00,000.00,029.4,027.1,000.0,038.1,030.5,026.4,0000.0,0009.64,0004.43,0003.71
2024-06-11 00:52:00,SystemResetWarning,0826.1,5.00,000.00,029.4,027.5,000.0,038.0,030.8,026.5,0000.0,0009.46,0004.42,0003.72
2024-06-11 00:53:00,SystemResetWarning,0826.1,5.00,000.00,029.4,027.8,000.0,038.0,030.9,026.4,0000.0,0009.89,0004.43,0003.73
2024-06-11 00:54:00,SystemResetWarning,0826.2,5.00,000.00,029.5,028.1,000.0,037.9,031.1,026.6,0000.0,0009.76,0004.44,0003.73
2024-06-11 00:55:00,SystemResetWarning,0826.2,4.99,000.00,029.5,028.4,000.0,037.9,031.2,026.7,0000.0,0009.77,0004.46,0003.73
2024-06-11 00:56:00,SystemResetWarning,0826.2,4.99,000.00,029.6,028.6,000.0,037.9,031.3,026.6,0000.0,0009.44,0004.44,0003.73
2024-06-11 00:57:00,SystemResetWarning,0826.2,4.99,000.00,029.6,028.8,000.0,037.9,031.4,025.8,0000.0,0009.48,0004.46,0003.74
2024-06-11 00:58:00,SystemResetWarning,0826.2,5.00,000.00,029.7,029.0,000.0,037.9,031.5,025.1,0000.0,0009.40,0004.47,0003.74
2024-06-11 00:59:00,SystemResetWarning,0826.2,5.00,000.00,029.8,029.1,000.0,038.0,031.6,024.6,0000.0,0009.75,0004.49,0003.75
